Погода Троицко-Печерск

Хотите узнать прогноз погоды Троицко-Печерск? Тогда Вам сюда: Погода Троицко-Печерск

Поиск расширенной информации на нашем сайте:

Полезная информация:

Новости сайта



02.01.2020
Опубликован Долгосрочный прогноз погоды по городам России и ближнего зарубежья на январь 2020 года.
Карты: Прогноз на январь и февраль 2020 года, Сравнение прогнозируемой аномалии приземной температуры воздуха на январь 2020 года по разным моделям.




Погода Троицко-Печерск - сегодня

Время (UTC), дата Ветер
(°,м/с) 
Видим.   Явления Облачность Т
(°С)
Тd
(°С)
f(%) Тe
(°С)
Pmin
(гПа)
dP
(гПа)
Po
(мм)
O2
(г/м3)
Тmin Tmax R s Состояние
почвы
15 02.07.20 210 (ЮЗ) 20000 м    10/3 600 м средняя 
[Sc diur, vesp|Ac As]
+18.4 +7.1 48 +19  1011  0.8  746  281    +21.2       
18 02.07.20 170 (Ю) 20000 м    10/0 средняя 
[Ac und]
+15.4 +9.4 67 +18  1011.2  746  283           
21 02.07.20 140 (ЮВ) 20000 м  в посл. час ливневой дождь  10/6 300 м кучево-дожд., средняя 
[Cb cap|Ac As]
+12.4 +10.3 87 +16  1011.2  -0.2  746  286           
00 03.07.20 150 (ЮВ) 20000 м  {ливн. осадки}  10/10 300 м кучево-дожд. 
[Cb cap]
+12.5 +11 91 +17  1011.2  0.1  746  285           
03 03.07.20 160 (Ю) 20000 м    10/10 300 м кучево-дожд. 
[Cb cap]
+13.5 +11.4 87 +18  1011.5  0.3  746  284  +12    0.3    влажная 
06 03.07.20 140 (ЮВ) 20000 м    10/10 300 м кучево-дожд. 
[Cb cap]
+16.4 +12 75 +21  1011.7  0.3  747  282           
09 03.07.20 210 (ЮЗ) 20000 м    10/8 300 м кучево-дожд., средняя 
[Cb cap|Ac trans]
+18.1 +11.8 67 +23  1012.1  0.6  747  280           
12 03.07.20 170 (Ю) 20000 м  в посл. час дождь  8/6 300 м кучево-дожд., средняя 
[Cb cap|Ac trans]
+20.5 +13.5 64 +27  1012.1  0.1  747  277           
15 03.07.20 190 (Ю) 20000 м  в посл. час дождь  9/8 300 м кучево-дожд., средняя 
[Cb cap|Ac trans]
+18.2 +13.6 75 +25  1012.8  0.1  748  280    +21.2  0.3     
18 03.07.20 270 (З) 20000 м  {дождь}  4/3 300 м средняя 
[Cu med, cong|Ac trans]
+15 +13.9 93 +23  1013.3  0.4  748  283           
21 03.07.20 280 (З) 20000 м    3/0 средняя 
[Ac trans]
+10.9 +10.3 96 +14  1014.4  0.8  749  288           
00 04.07.20 тихо ()   20000 м    ясно 
+9.4 +8.5 94 +9  1014.5  749  290           
03 04.07.20 200 (Ю) 20000 м    ясно 
+16.4 +13.2 81 +24  1014.7  0.7  749  282  +8.9      влажная 
06 04.07.20 140 (ЮВ) 20000 м    8/1 600 м верхняя 
[Cu hum|Ci fib]
+22.3 +13.4 57 +28  1013.3  -1.1  748  276           
09 04.07.20 190 (Ю) 20000 м    10/5 600 м кучево-дожд., верхняя 
[Cb cap|Cs]
+24.1 +12 47 +28  1012.2  -1  747  275           
12 04.07.20 200 (Ю) 20000 м    10/3 600 м кучево-дожд., средняя 
[Cb cap|Ac As]
+23.1 +13.4 54 +29  1011.3  -0.9  747  275           
15 04.07.20 240 (ЮЗ) 20000 м    10/0 средняя 
[Ac As]
+18.6 +15.2 81 +29  1011.3  -0.3  747  278    +25.1       
18 04.07.20 170 (Ю) 20000 м    9/0 средняя 
[Ac trans]
+17.4 +15.9 91 +29  1010.2  -1.2  746  279           
21 04.07.20 200 (Ю) 20000 м    9/0 средняя 
[Ac trans]
+16.6 +15.2 91 +26  1009.1  -1  745  280           
00 05.07.20 180 (Ю) 20000 м    10/0 средняя 
[Ac und]
+16.6 +15.1 91 +26  1008.8  -0.3  745  280           
03 05.07.20 200 (Ю) 20000 м    8/6 600 м средняя 
[Cu med, cong|Ac trans]
+18.8 +16.3 85 +31  1008.6  -0.1  745  277  +16.4        сухая 
06 05.07.20 220 (ЮЗ) 20000 м    8/0 средняя, верхняя 
[Cu med, cong|Ac trans|Cs]
+21.7 +15 66 +31  1008.2  -0.2  744  275           
09 05.07.20 270 (З) 20000 м    8/6 600 м средняя, верхняя 
[Cu med, cong|Ac trans|Cs]
+24.1 +14.5 55 +32  1007.5  -0.6  744  273           
12 05.07.20 310 (СЗ) 20000 м    8/5 600 м верхняя 
[Cu med, cong|Cs]
+26.3 +12.5 42 +31  1006.9  -0.5  744  271           
15 05.07.20 290 (З) 20000 м    4/3 600 м верхняя 
[Cu med, cong|Cs]
+25.1 +10.5 40 +27  1006.8  -0.2  743  272    +27       
Время (UTC), дата Ветер
(°,м/с) 
Видим.   Явления Облачность Т
(°С)
Тd
(°С)
f(%) Тe
(°С)
Pmin
(гПа)
dP
(гПа)
Po
(мм)
O2
(г/м3)
Тmin Tmax R s Состояние
почвы

Для получения пояснительной информации подведите курсор к названию столбца.

ПОГОДА Троицко-Печерск - архив

Всё, что Вы хотите узнать о погоде Троицко-Печерск - удобно и подробно!

Выберите нужную дату (начиная с 1 января 2019* года) и нажмите кнопку "Найти".
Будут отображены архивные сводки погоды по пункту Троицко-Печерск, начиная с указанной даты.


Отображать данные в формате CSV (для использования в таблицах Excel)


Внимание! Наш архив погоды предназначен исключительно для личного некоммерческого использования в познавательных целях. Если Вам необходимы официальные справки о состоянии погоды (для производственных, юридических, коммерческих и т.п. целей), обращайтесь в органы Росгидромета.

*Примечание: данная дата относится к архиву по метеостанциям СССР (Россия, СНГ, Балтия).
Архив по метеостанциям Зарубежной Европы и Азии (кроме Китая) хранится 10 дней, по другим регионам земного шара (Китай, Африка, Америка, Австралия, Океания) - 1 день.

Троицко-Печерск - район местоположения метеостанции


Название, широта, долгота, высота метеостанции:
Троицко-Печерск 62.7°ш. 56.2°д. 139 м над ур. моря [Российская Федерация]

Дополнительная информация

В oтличие oт бoльшинства пoгoдных сайтoв мы публикуем пoдрoбную метеoинфoрмацию в детальнoм прoфессиoнальнoм фoрмате.

Характеристики температуры и влажнoсти вoздуха измеряются на высoте 2 м в тени вдали oт зданий и деревьев.
Скoрoсть ветра измеряется на высoте 10 м (на урoвне рoста челoвека скoрoсть ветра ниже в 1.5-2 раза). Если метеoстанция нахoдится в гoрoде или в лесу, тo скoрoсть ветра занижена на 2-4 м/с пo сравнению с oткрытым местoм. Скoрoсть ветра над акватoриями крупных рек и oзёр, а также на вершинах хoлмoв на 2-5 м/с выше, чем в oбычных услoвиях.
Атмoсфернoе давление в разных тoчках местнoсти мoжет значительнo oтличаться oт давления на метеoстанции, в зависимoсти oт услoвий рельефа (при пoдъёме на 10 м давление пoнижается примернo на 1 мм рт.ст.).